Flag for Canada Weather past 2 weeks in Selkirk, Manitoba, Canada

Now
65 °F

Mild.


Feels Like: 65 °F
Forecast: 62 / 71 °F
Wind: 2 mph from Southwest

Location: Winnipeg The Forks

Current Time: Sep 5, 2015 at 3:40:42 AM

Latest Report: Sep 5, 2015 at 3:00 AM


Visibility: N/A

Pressure: 29.89 "Hg

Humidity: 95%

Dew point: 64 °F

Location of SelkirkLocation

Historic Weather in Selkirk — Graph

°F

Selkirk temperature yesterday

Maximum temperature yesterday: 78 °F (at 3:00 AM)
Minimum temperature yesterday: 68 °F (at 3:00 PM)
Average temperature yesterday: 73 °F

Past Weeks' High & Low Weather Summary

 TemperatureHumidityPressure
High87 °F (Sep 2, 4:00 PM)96% (Aug 30, 7:00 AM)30.20 "Hg (Aug 30, 7:00 AM)
Low49 °F (Aug 26, 7:00 AM)29% (Aug 31, 6:00 PM)29.36 "Hg (Aug 22, 9:00 PM)
Average68 °F72%29.81 "Hg
* Reported Aug 21 2:00 AM — Sep 5 2:00 AM, Selkirk, Weather by CustomWeather, © 2015

Note: Actual official high and low records may vary slightly from our data, if they occured in-between our weather recording intervals... More about our weather records

Advertising

Selkirk weather history for previous 24 hours

 ConditionsComfort  
Time TempWeatherWind HumidityBarometerVisibility
2:00 AM
Sat, Sep 5
66 °FMild.No wind96%29.88 "HgN/A
1:00 AM67 °FMild.2 mph95%29.86 "HgN/A
12:00 AM67 °FMild.1 mph89%29.85 "HgN/A
11:00 PM
Fri, Sep 4
68 °FMild.2 mph92%29.85 "HgN/A
10:00 PM69 °FMild.3 mph92%29.85 "HgN/A
9:00 PM69 °FMild.2 mph92%29.82 "HgN/A
7:00 PM69 °FMild.3 mph94%29.76 "HgN/A
6:00 PM70 °FMild.6 mph95%29.74 "HgN/A
4:00 PM69 °FMild.1 mph94%29.83 "HgN/A
3:00 PM68 °FMild.2 mph95%29.82 "HgN/A
2:00 PM76 °FMild.3 mph86%29.77 "HgN/A
1:00 PM76 °FMild.3 mph85%29.75 "HgN/A
12:00 PM75 °FMild.3 mph85%29.80 "HgN/A
11:00 AM74 °FMild.3 mph88%29.81 "HgN/A
10:00 AM73 °FMild.6 mph90%29.80 "HgN/A
9:00 AM74 °FMild.3 mph90%29.79 "HgN/A
8:00 AM75 °FMild.2 mph88%29.77 "HgN/A
7:00 AM76 °FMild.2 mph85%29.76 "HgN/A
5:00 AM77 °FMild.3 mph84%29.76 "HgN/A
4:00 AM77 °FWarm.1 mph83%29.78 "HgN/A
3:00 AM78 °FWarm.3 mph84%29.75 "HgN/A
Weather by CustomWeather, © 2015

See weather overviewHow to use our weather pages